SL-16 DEB, 22351

Orbit data source: Space-Track

SL-16 DEB, 22351 is space debris in LEO originally from a launch on Fri, 25 Dec 1992 UTC launched from the Tyuratam Missile And Space Complex (TTMTR). Debris objects in space refer to the collection of defunct objects orbiting the Earth. Examples of debris include non-operational satellites, rocket bodies, and fragments generated from explosions, collisions, or faulty payload assembly.

Loading next visibility...
Identifier
22351, 1992-093AQ
Orbit
LEO
Country
Flag of CISCIS
Related business
Manufacturer
Unknown
Mission
Spacecraft
Bus & Motor
Unknown
Mass
Unknown
Launch date (UTC)
1992-12-25 (33 years ago)
Launch vehicle
Unknown
Launch site
Tyuratam Missile And Space Complex (TTMTR)
Object type
Payload
Rocket body
Debris
Shape & HBR
Unknown shape, 0.1 m
Radar Cross Section
Small (<0.1 m²)

Expand to show TLE details & history
Last TLE update: 7 hours ago

TLE from 7 hours ago
0 SL-16 DEB
1 22351U 92093AQ  26127.08242397  .00000237  00000-0  17119-3 0  9993
2 22351  70.9085 355.4916 0102874 155.4630 323.2081 14.04037185703904
Epoch: 2026-05-07T01:58Z
TLE epoch observation values (Epoch: 2026-05-07T01:58:41.431Z)
Latitude
56.69765°
Longitude
-110.72029°
Altitude
829.262 km
Speed
7.475 km/s
True Right ascension
09h 35m 32s
True Declination
56° 32' 28"
Sunlit
Object was in daylight at epoch
Visualization orbit readout
Latitude
Unknown
Longitude
Unknown
Altitude
Unknown
Speed
Unknown
Apparent Right ascension
Unknown
Apparent Declination
Unknown
Sunlit
N/A
Visualization observer readout
Local Sidereal Time
17:21:42
Azimuth
Unknown
Elevation
Unknown
Doppler factor
Unknown
Orbital elements
Apogee altitude
952.438 km
Perigee altitude
803.148 km
Semi-major axis
7,255.93 km
Eccentricity
0.01029
Inclination
70.9085°
RAAN
355.4916°
Arg. of periapsis
155.463°
True anomaly
322.49475°
Mean anomaly
323.2081°
Eccentric anomaly
322.85216°
Mean motion
3.51159 °/min
Orbital period
102.52 mins
BSTAR
0.00017119
Loading maneuver chart data...
Computing Atmospheric mass density...
Loading historical data...
Loading historical data...
Loading historical data...
Loading historical data...
Loading historical data...
Loading historical data...
Loading historical data...

Documentation

Showing up to 5 results
|